Location: Marstown
(39.5056°N, 77.0820°W)
Time: 01:24:08
(UTC-05:00)

Envisat - Visible Passes

Search period start: 23 February 2024 00:00
Search period end: 04 March 2024 00:00
Orbit: 762 x 764 km, 98.3° (Epoch: 22 February)

Date Brightness Start Highest point End Pass type
(mag) Time Alt. Az. Time Alt. Az. Time Alt. Az.
23 Feb 5.3 04:49:44 10° NNW 04:49:45 10° NNW 04:49:45 10° NNW visible
24 Feb 5.3 04:11:35 10° N 04:12:10 13° N 04:12:10 13° N visible
25 Feb 5.6 03:34:05 10° NNE 03:34:34 13° NNE 03:34:34 13° NNE visible
26 Feb 5.2 04:36:27 10° NNW 04:37:08 13° NNW 04:37:08 13° NNW visible
27 Feb 5.2 03:58:34 10° N 03:59:34 16° N 03:59:34 16° N visible
28 Feb 5.6 03:21:15 10° NNE 03:21:57 14° NNE 03:21:57 14° NNE visible
28 Feb 5.2 05:01:46 10° NNW 05:02:08 11° NNW 05:02:08 11° NNW visible
29 Feb 5.0 04:23:17 10° N 04:24:32 17° NNW 04:24:32 17° NNW visible
01 Mar 5.1 03:45:36 10° N 03:46:57 19° N 03:46:57 19° N visible
02 Mar 5.6 03:08:27 10° NNE 03:09:21 15° NNE 03:09:21 15° NNE visible
02 Mar 4.9 04:48:19 10° NNW 04:49:32 15° NNW 04:49:32 15° NNW visible
03 Mar 4.8 04:10:11 10° N 04:11:56 21° N 04:11:56 21° N visible
